Time,TemperatureF,DewpointF,PressureIn,WindDirection,WindDirectionDegrees,WindSpeedMPH,WindSpeedGustMPH,Humidity,HourlyPrecipIn,Conditions,Clouds,dailyrainin,SolarRadiationWatts/m^2,SoftwareType,DateUTC
2013-01-13 00:00:00,54.1,53.0,30.10,NNE,31,0.0,0.0,96,0.00,,,0.01,0,Wunderground v.1.15,2013-01-13 05:00:00,
2013-01-13 00:30:00,54.0,52.9,30.10,NNE,31,0.0,0.0,96,0.00,,,0.00,0,Wunderground v.1.15,2013-01-13 05:30:00,
2013-01-13 01:00:00,53.9,52.8,30.09,NNE,31,0.0,0.0,96,0.00,,,0.00,0,Wunderground v.1.15,2013-01-13 06:00:00,
2013-01-13 01:30:00,53.9,52.8,30.09,NNE,31,0.0,0.0,96,0.00,,,0.00,0,Wunderground v.1.15,2013-01-13 06:30:00,
2013-01-13 02:00:00,54.1,53.0,30.09,NNE,31,0.0,0.0,96,0.00,,,0.00,0,Wunderground v.1.15,2013-01-13 07:00:00,
2013-01-13 02:30:00,52.7,51.6,30.09,NNE,31,0.0,0.0,96,0.00,,,0.00,0,Wunderground v.1.15,2013-01-13 07:30:00,
2013-01-13 03:00:00,52.2,51.1,30.09,NNE,31,0.0,0.0,96,0.00,,,0.00,0,Wunderground v.1.15,2013-01-13 08:00:00,
2013-01-13 03:30:00,51.9,50.8,30.08,NNE,31,0.0,0.0,96,0.00,,,0.00,0,Wunderground v.1.15,2013-01-13 08:30:00,
2013-01-13 04:00:00,51.4,50.3,30.10,NNE,31,0.0,0.0,96,0.00,,,0.00,0,Wunderground v.1.15,2013-01-13 09:00:00,
2013-01-13 04:30:00,51.0,49.9,30.09,NNE,31,0.0,0.0,96,0.00,,,0.00,0,Wunderground v.1.15,2013-01-13 09:30:00,
2013-01-13 05:00:00,50.7,49.6,30.09,NNE,31,0.0,0.0,96,0.00,,,0.00,0,Wunderground v.1.15,2013-01-13 10:00:00,
2013-01-13 05:30:00,50.6,49.5,30.09,NNE,31,0.0,0.0,96,0.00,,,0.00,0,Wunderground v.1.15,2013-01-13 10:30:00,
2013-01-13 06:00:00,50.3,49.2,30.09,NNE,31,0.0,0.0,96,0.00,,,0.00,0,Wunderground v.1.15,2013-01-13 11:00:00,
2013-01-13 06:30:00,49.6,48.5,30.10,NNE,31,0.0,0.0,96,0.00,,,0.00,0,Wunderground v.1.15,2013-01-13 11:30:00,
2013-01-13 07:00:00,49.8,48.7,30.12,NNE,31,0.0,0.0,96,0.00,,,0.00,0,Wunderground v.1.15,2013-01-13 12:00:00,
2013-01-13 07:30:00,49.6,48.5,30.13,NNE,31,0.0,0.0,96,0.00,,,0.00,16,Wunderground v.1.15,2013-01-13 12:30:00,
2013-01-13 08:00:00,50.5,49.4,30.14,NNE,31,0.0,0.0,96,0.00,,,0.00,53,Wunderground v.1.15,2013-01-13 13:00:00,
2013-01-13 08:30:00,54.9,54.1,30.14,NNE,31,0.0,0.0,97,0.00,,,0.00,135,Wunderground v.1.15,2013-01-13 13:30:00,
2013-01-13 09:00:00,60.4,59.5,30.15,NNE,31,0.0,0.0,97,0.00,,,0.00,325,Wunderground v.1.15,2013-01-13 14:00:00,
2013-01-13 09:30:00,63.4,62.5,30.15,NNE,31,1.0,2.0,97,0.00,,,0.00,139,Wunderground v.1.15,2013-01-13 14:30:00,
2013-01-13 10:00:00,63.1,62.2,30.15,NNE,26,1.0,1.0,97,0.00,,,0.00,206,Wunderground v.1.15,2013-01-13 15:00:00,
2013-01-13 10:30:00,66.4,64.9,30.14,NNE,17,3.0,4.0,95,0.00,,,0.00,408,Wunderground v.1.15,2013-01-13 15:30:00,
2013-01-13 11:00:00,70.4,65.3,30.14,NE,45,4.0,4.0,84,0.00,,,0.00,380,Wunderground v.1.15,2013-01-13 16:00:00,